Theta_e
344 341 337 334 333 331 329 329 330 330 329 327 325 325 326 327 328 326 327 325 329 329
341 333 331 330 329 329 328 331 329 328 325 325 325 323 322 323 324 324 324 324 324 323
334 332 330 329 327 327 327 327 325 324 323 320 319 320 320 321 321 322 322 322 322 321
331 328 328 327 326 326 324 323 322 320 315 313 313 315 317 319 319 319 320 320 318 318
327 326 325 325 324 324 322 321 319 314 308 308 311 315 316 317 317 318 318 316 314 314
324 324 322 321 321 320 316 312 311 306 307 309 311 312 314 316 314 313 315 315 312 310
322 321 320 319 318 316 312 309 307 306 303 306 309 311 312 315 313 312 312 314 312 308
320 319 318 316 315 315 311 305 302 302 302 302 308 314 311 313 313 311 311 312 313 308
319 318 315 313 313 314 312 309 306 302 301 301 309 319 325 316 314 312 310 307 307 309
318 315 313 313 313 312 312 312 310 307 305 303 302 318 323 320 314 312 310 306 305 308
315 314 313 312 311 311 311 310 309 310 309 307 306 316 319 315 306 312 311 307 305 304
314 313 313 311 311 311 310 310 311 310 309 310 307 314 315 309 303 309 310 308 305 304
314 313 312 312 312 311 313 312 313 312 311 313 310 313 313 309 303 303 306 308 306 312
314 314 313 312 312 313 312 312 311 312 312 313 313 311 314 312 304 302 303 304 305 305
Wind_Speed
7 4 4 5 5 5 3 3 4 6 5 5 5 5 5 4 4 4 5 7 5 4
7 8 8 7 6 4 4 5 6 6 6 6 6 6 5 4 5 5 4 4 5 4
8 8 8 7 7 6 6 6 6 6 6 6 6 6 6 4 4 4 4 3 6 5
7 7 7 7 6 6 6 6 6 7 6 6 6 6 6 5 6 7 7 7 7 7
8 7 7 7 6 6 7 6 7 6 6 6 6 6 6 6 5 7 6 5 7 6
7 7 6 7 7 7 7 7 7 7 6 6 5 6 5 5 5 6 6 5 6 5
7 7 6 6 7 7 7 7 6 6 6 4 4 5 5 5 5 5 5 4 3 4
7 7 7 7 7 6 7 6 6 6 5 3 3 3 4 3 4 5 5 4 2 4
8 7 7 6 7 7 6 5 6 6 5 4 3 4 6 7 4 3 5 4 3 2
8 8 7 6 6 6 6 4 4 3 3 3 2 7 8 10 4 4 3 3 2 3
8 7 7 7 6 4 4 5 5 4 3 1 2 7 7 8 5 6 4 3 2 1
8 8 7 8 6 4 4 3 4 3 5 3 1 3 7 6 4 4 2 2 1 1
8 7 7 6 7 4 3 5 4 5 5 6 4 5 2 4 2 3 2 2 4 6
7 7 7 7 3 4 3 2 3 3 3 5 6 6 7 3 0 1 2 1 3 4
Wind_Direction
127 113 86 96 108 109 117 120 75 72 74 56 46 33 30 34 36 40 47 45 32 32
119 118 115 109 98 106 103 90 87 84 72 52 45 34 20 33 32 39 49 51 57 44
126 119 119 117 113 108 102 95 82 77 71 57 45 35 36 26 9 37 11 31 60 46
116 111 108 109 103 106 98 95 82 86 71 57 46 25 32 28 39 59 53 47 48 36
111 101 101 98 96 101 91 79 100 94 76 66 60 43 40 54 57 72 68 54 56 34
105 110 105 99 100 93 91 84 83 85 79 71 62 60 48 80 76 79 85 73 62 41
112 117 114 109 102 101 100 96 91 90 85 76 58 63 55 78 76 82 88 103 86 61
117 111 113 105 102 104 97 104 108 100 75 55 51 47 87 110 134 106 78 69 85 42
117 114 116 121 124 121 130 126 102 87 97 61 21 13 54 141 157 119 98 77 32 27
130 129 136 138 131 136 144 148 152 153 109 69 10 39 61 104 164 142 123 111 50 25
132 139 142 140 152 159 152 156 165 176 185 121 357 42 57 72 77 137 159 171 124 20
142 146 155 153 178 198 170 186 198 184 179 187 270 23 50 67 67 85 162 226 263 270
146 155 168 172 184 206 193 210 201 223 206 210 220 258 5 74 93 83 43 244 296 295
153 166 174 175 189 221 205 193 197 209 237 224 212 244 240 215 269 168 148 200 292 300